Flag for U.S.A. Weather past 2 weeks in Aliso Viejo, California, U.S.A.

Now
79 °F

Haze.


Feels Like: 80 °F
Forecast: 62 / 83 °F
Wind: No wind

Location: John Wayne Airport-Orange County Airport

Current Time: Sep 23, 2014 at 11:42:47 AM

Latest Report: Sep 23, 2014 at 10:53 AM


Visibility: 6 mi

Pressure: 29.97 "Hg

Humidity: 54%

Dew point: 61 °F

Location of Aliso ViejoLocation

Historic Weather in Aliso Viejo — Graph

°F

Aliso Viejo temperature yesterday

Maximum temperature yesterday: 81 °F (at 2:53 PM)
Minimum temperature yesterday: 67 °F (at 6:53 AM)
Average temperature yesterday: 74 °F

Past Weeks' High & Low Weather Summary

 TemperatureHumidityPressure
High99 °F (Sep 16, 4:53 PM)88% (Sep 23, 6:00 AM)29.99 "Hg (Sep 23, 6:00 AM)
Low66 °F (Sep 23, 6:00 AM)24% (Sep 16, 3:53 PM)29.67 "Hg (Sep 14, 4:53 PM)
Average79 °F58%29.83 "Hg
* Reported Sep 8 9:53 AM — Sep 23 9:53 AM, Aliso Viejo, Weather by CustomWeather, © 2014

Note: Actual official high and low records may vary slightly from our data, if they occured in-between our weather recording intervals... More about our weather records

Advertising

Aliso Viejo weather history for previous 24 hours

 ConditionsComfort  
Time TempWeatherWind HumidityBarometerVisibility
9:53 AM
Sep 23
74 °FHaze.No wind69%29.98 "Hg3 mi
8:53 AM69 °FLow clouds.No wind81%29.98 "Hg1 mi
7:53 AM67 °FFog.No wind87%29.96 "Hg1 mi
6:53 AM67 °FFog.No wind87%29.95 "Hg1 mi
6:00 AM66 °FPartly cloudy.No wind88%29.95 "Hg1 mi
4:53 AM68 °FClear.No wind78%29.93 "Hg10 mi
3:53 AM69 °FClear.No wind76%29.93 "Hg10 mi
2:53 AM69 °FClear.3 mph76%29.94 "Hg10 mi
1:53 AM70 °FClear.No wind79%29.94 "Hg10 mi
12:53 AM71 °FClear.No wind73%29.95 "Hg10 mi
11:53 PM
Sep 22
71 °FClear.No wind76%29.94 "Hg10 mi
10:53 PM72 °FPassing clouds.No wind73%29.94 "Hg10 mi
9:53 PM73 °FPassing clouds.No wind74%29.93 "Hg10 mi
8:53 PM73 °FPassing clouds.3 mph71%29.92 "Hg10 mi
7:53 PM74 °FClear.6 mph67%29.91 "Hg10 mi
6:53 PM76 °FSunny.6 mph62%29.90 "Hg10 mi
5:53 PM77 °FSunny.6 mph62%29.90 "Hg10 mi
4:53 PM79 °FSunny.7 mph58%29.90 "Hg10 mi
3:53 PM79 °FSunny.8 mph58%29.91 "Hg10 mi
2:53 PM81 °FSunny.9 mph53%29.93 "Hg10 mi
1:53 PM80 °FSunny.8 mph52%29.94 "Hg10 mi
12:53 PM80 °FSunny.10 mph54%29.96 "Hg10 mi
11:53 AM79 °FPassing clouds.7 mph56%29.98 "Hg10 mi
Weather by CustomWeather, © 2014

See weather overviewHow to use our weather pages